datetime,ave RG release
2017-01-01,643.6753
2017-01-02,657.6753
2017-01-03,662.6933
2017-01-04,651.6933
2017-01-05,661.6933
2017-01-06,697.6933
2017-01-07,633.6933
2017-01-08,580.6933
2017-01-09,647.6933
2017-01-10,684.6933
2017-01-11,705.59147
2017-01-12,700.59147
2017-01-13,715.59147
2017-01-14,743.14734
2017-01-15,805.14734
2017-01-16,843.14734
2017-01-17,820.14734
2017-01-18,799.14734
2017-01-19,800.52584
2017-01-20,797.52584
2017-01-21,736.698595
2017-01-22,697.311851
2017-01-23,631.909
2017-01-24,651.450505
2017-01-25,647.708978
2017-01-26,591.792
2017-01-27,562.711
2017-01-28,519.711
2017-01-29,514.711
2017-01-30,534.711
2017-01-31,547.711
2017-02-01,561.711
2017-02-02,572.711
2017-02-03,646.183291
2017-02-04,667.061896
2017-02-05,656.063771
2017-02-06,700.82223
2017-02-07,713.82223
2017-02-08,726.82223
2017-02-09,784.82223
2017-02-10,787.03934
2017-02-11,817.03934
2017-02-12,894.03934
2017-02-13,944.03934
2017-02-14,987.03934
2017-02-15,995.36536
2017-02-16,1015.36536
2017-02-17,985.36536
2017-02-18,995.36536
2017-02-19,995.36536
2017-02-20,995.36536
2017-02-21,965.36536
2017-02-22,985.36536
2017-02-23,996.35636
2017-02-24,1006.35636
2017-02-25,912.711
2017-02-26,870.711
2017-02-27,853.711
2017-02-28,808.711
2017-03-01,778.444222
2017-03-02,780.711
2017-03-03,780.729
2017-03-04,827.35636
2017-03-05,826.35636
2017-03-06,833.35636
2017-03-07,825.35636
2017-03-08,925.35636
2017-03-09,986.35636
2017-03-10,1006.35636
2017-03-11,1047.12934
2017-03-12,1097.12934
2017-03-13,1157.12934
2017-03-14,1340.19234
2017-03-15,1531.06647
2017-03-16,1581.06647
2017-03-17,1951.06647
2017-03-18,2141.06647
2017-03-19,2287.96464
2017-03-20,2437.96464
2017-03-21,2577.96464
2017-03-22,2795.6457
2017-03-23,2925.6457
2017-03-24,3325.6457
2017-03-25,3463.30694
2017-03-26,3710.87694
2017-03-27,3600.87694
2017-03-28,3686.396
2017-03-29,3716.396
2017-03-30,3657.09051
2017-03-31,3637.09051
2017-04-01,3631.7383
2017-04-02,3587.09051
2017-04-03,3467.09051
2017-04-04,3457.09051
2017-04-05,3298.63647
2017-04-06,3098.63647
2017-04-07,2938.63647
2017-04-08,2879.40945
2017-04-09,2865.44545
2017-04-10,2855.44545
2017-04-11,2915.44545
2017-04-12,2945.44545
2017-04-13,3055.44545
2017-04-14,3324.67247
2017-04-15,3632.432
2017-04-16,3900.0
2017-04-17,4030.0
2017-04-18,4170.0
2017-04-19,4350.0
2017-04-20,4320.0
2017-04-21,4450.0
2017-04-22,4440.0
2017-04-23,4440.0
2017-04-24,4320.0
2017-04-25,4580.0
2017-04-26,4490.0
2017-04-27,4400.0
2017-04-28,4320.0
2017-04-29,4050.0
2017-04-30,3810.0
2017-05-01,3700.0
2017-05-02,3570.0
2017-05-03,3540.0
2017-05-04,3520.0
2017-05-05,3550.0
2017-05-06,3810.0
2017-05-07,3910.0
2017-05-08,4260.0
2017-05-09,4920.0
2017-05-10,5720.0
2017-05-11,6150.0
2017-05-12,5990.0
2017-05-13,5640.0
2017-05-14,5080.0
2017-05-15,4690.0
2017-05-16,5380.0
2017-05-17,5700.0
2017-05-18,5620.0
2017-05-19,5640.0
2017-05-20,5320.0
2017-05-21,4760.0
2017-05-22,4200.0
2017-05-23,3880.0
2017-05-24,3760.0
2017-05-25,3680.0
2017-05-26,3780.0
2017-05-27,3990.0
2017-05-28,4240.0
2017-05-29,4240.0
2017-05-30,4290.0
2017-05-31,3970.9273
2017-06-01,3800.9273
2017-06-02,3823.73264
2017-06-03,3733.73264
2017-06-04,3743.73264
2017-06-05,3763.73264
2017-06-06,3813.73264
2017-06-07,3965.28851
2017-06-08,4115.28851
2017-06-09,4155.28851
2017-06-10,4115.28851
2017-06-11,3945.28851
2017-06-12,3515.28851
2017-06-13,3175.28851
2017-06-14,2695.28851
2017-06-15,2155.28851
2017-06-16,1905.28851
2017-06-17,1682.31551
2017-06-18,1562.31551
2017-06-19,1582.31551
2017-06-20,1562.31551
2017-06-21,1560.24351
2017-06-22,1507.65781
2017-06-23,1437.65781
2017-06-24,1349.21368
2017-06-25,1179.21368
2017-06-26,1119.21368
2017-06-27,1049.21368
2017-06-28,1113.0984
2017-06-29,1083.0984
2017-06-30,953.0984
2017-07-01,768.7633
2017-07-02,810.02268
2017-07-03,850.02268
2017-07-04,1020.02268
2017-07-05,980.02268
2017-07-06,914.22047
2017-07-07,874.22047
2017-07-08,927.50068
2017-07-09,899.57268
2017-07-10,809.57268
2017-07-11,809.574456
2017-07-12,819.574456
2017-07-13,929.574456
2017-07-14,868.01681
2017-07-15,878.01681
2017-07-16,848.01681
2017-07-17,950.02268
2017-07-18,1080.02268
2017-07-19,1106.22634
2017-07-20,816.22634
2017-07-21,690.34547
2017-07-22,637.34547
2017-07-23,601.69768
2017-07-24,721.89768
2017-07-25,818.89768
2017-07-26,896.305
2017-07-27,966.305
2017-07-28,975.44364
2017-07-29,1011.6473
2017-07-30,851.6473
2017-07-31,955.9723
2017-08-01,893.9723
2017-08-02,767.76864
2017-08-03,806.42634
2017-08-04,818.35434
2017-08-05,752.42634
2017-08-06,700.42634
2017-08-07,833.42634
2017-08-08,974.42634
2017-08-09,931.32451
2017-08-10,785.32451
2017-08-11,760.87047
2017-08-12,830.32451
2017-08-13,730.32451
2017-08-14,665.32451
2017-08-15,734.32451
2017-08-16,704.44647
2017-08-17,704.44647
2017-08-18,794.58157
2017-08-19,742.58157
2017-08-20,718.60857
2017-08-21,810.60857
2017-08-22,837.47347
2017-08-23,926.47347
2017-08-24,841.92751
2017-08-25,682.92751
2017-08-26,645.92751
2017-08-27,607.92751
2017-08-28,601.92751
2017-08-29,609.92751
2017-08-30,767.92751
2017-08-31,709.37164
2017-09-01,696.5753
2017-09-02,659.37164
2017-09-03,607.37164
2017-09-04,586.37164
2017-09-05,685.37164
2017-09-06,760.02934
2017-09-07,779.02934
2017-09-08,802.02934
2017-09-09,851.02934
2017-09-10,814.02934
2017-09-11,792.02934
2017-09-12,820.02934
2017-09-13,828.02934
2017-09-14,802.02934
2017-09-15,796.02934
2017-09-16,792.02934
2017-09-17,796.02934
2017-09-18,801.02934
2017-09-19,811.95734
2017-09-20,796.02934
2017-09-21,821.02934
2017-09-22,826.02934
2017-09-23,836.02934
2017-09-24,837.02934
2017-09-25,734.02934
2017-09-26,625.02934
2017-09-27,686.13117
2017-09-28,867.233797
2017-09-29,1376.18951
2017-09-30,1166.18951
2017-10-01,1060.8373
2017-10-02,1019.71747
2017-10-03,1259.71747
2017-10-04,1479.71747
2017-10-05,1944.37517
2017-10-06,1564.37517
2017-10-07,1651.27334
2017-10-08,1641.27334
2017-10-09,1651.27334
2017-10-10,1581.27334
2017-10-11,1396.13834
2017-10-12,1336.13834
2017-10-13,1106.13834
2017-10-14,1066.13834
2017-10-15,1036.13834
2017-10-16,971.27334
2017-10-17,924.27334
2017-10-18,872.27334
2017-10-19,817.8193
2017-10-20,892.37517
2017-10-21,940.37517
2017-10-22,908.37517
2017-10-23,925.37517
2017-10-24,873.37517
2017-10-25,846.37517
2017-10-26,821.37517
2017-10-27,850.8193
2017-10-28,905.8193
2017-10-29,885.8193
2017-10-30,830.8193
2017-10-31,851.8193
2017-11-01,850.8193
2017-11-02,903.8103
2017-11-03,939.8103
2017-11-04,973.8103
2017-11-05,1003.8103
2017-11-06,953.8103
2017-11-07,1043.8103
2017-11-08,1116.91213
2017-11-09,1126.91213
2017-11-10,1186.14906
2017-11-11,1276.14906
2017-11-12,1246.14906
2017-11-13,1186.14906
2017-11-14,1286.14906
2017-11-15,1279.12206
2017-11-16,1249.12206
2017-11-17,1309.12206
2017-11-18,1439.12206
2017-11-19,1519.12206
2017-11-20,1449.12206
2017-11-21,1490.60856
2017-11-22,1490.60856
2017-11-23,1489.7563
2017-11-24,1499.7563
2017-11-25,1519.7563
2017-11-26,1549.7563
2017-11-27,1549.7563
2017-11-28,1546.1978
2017-11-29,1595.33644
2017-11-30,1605.33644
2017-12-01,1626.1978
2017-12-02,1616.1978
2017-12-03,1616.1978
2017-12-04,1616.1978
2017-12-05,1606.1978
2017-12-06,1579.29963
2017-12-07,1517.75367
2017-12-08,1456.1978
2017-12-09,1406.1978
2017-12-10,1526.1978
2017-12-11,1386.1978
2017-12-12,1396.1978
2017-12-13,1316.1978
2017-12-14,1306.1978
2017-12-15,1295.43473
2017-12-16,1305.43473
2017-12-17,1225.43473
2017-12-18,1205.43473
2017-12-19,1177.91223
2017-12-20,1058.6753
2017-12-21,898.6753
2017-12-22,856.6753
2017-12-23,748.6753
2017-12-24,703.6753
2017-12-25,695.6753
2017-12-26,678.6753
2017-12-27,681.6753
2017-12-28,686.6753
2017-12-29,681.6753
2017-12-30,674.6753
2017-12-31,685.6753
2018-01-01,656.6753
2018-01-02,679.6753
2018-01-03,636.918
2018-01-04,628.09284
2018-01-05,545.918
2018-01-06,553.915627
2018-01-07,628.482589
2018-01-08,655.170203
2018-01-09,622.688223
2018-01-10,698.661367
2018-01-11,698.12934
2018-01-12,699.911924
2018-01-13,641.648
2018-01-14,644.906147
2018-01-15,604.733893
2018-01-16,620.433374
2018-01-17,613.332856
2018-01-18,542.940023
2018-01-19,564.429187
2018-01-20,604.23117
2018-01-21,649.91223
2018-01-22,671.29973
2018-01-23,574.172385
2018-01-24,498.531
2018-01-25,545.531
2018-01-26,565.531
2018-01-27,553.50491
2018-01-28,549.3329
2018-01-29,556.3329
2018-01-30,590.979113
2018-01-31,628.09263
2018-02-01,622.66913
2018-02-02,643.80423
2018-02-03,656.80423
2018-02-04,648.80423
2018-02-05,662.80423
2018-02-06,667.80423
2018-02-07,671.80423
2018-02-08,687.80423
2018-02-09,673.80423
2018-02-10,663.80423
2018-02-11,650.80423
2018-02-12,655.80423
2018-02-13,644.80423
2018-02-14,655.80423
2018-02-15,662.80423
2018-02-16,671.80423
2018-02-17,669.80423
2018-02-18,684.80423
2018-02-19,679.80423
2018-02-20,652.80423
2018-02-21,644.80423
2018-02-22,648.80423
2018-02-23,652.80423
2018-02-24,624.80423
2018-02-25,615.91223
2018-02-26,626.77713
2018-02-27,647.77713
2018-02-28,671.77713
2018-03-01,648.77713
2018-03-02,630.77713
2018-03-03,627.77713
2018-03-04,630.77713
2018-03-05,623.77713
2018-03-06,608.77713
2018-03-07,614.77713
2018-03-08,628.77713
2018-03-09,618.77713
2018-03-10,600.77713
2018-03-11,606.77713
2018-03-12,612.77713
2018-03-13,603.77713
2018-03-14,624.77713
2018-03-15,633.77713
2018-03-16,660.77713
2018-03-17,663.77713
2018-03-18,686.77713
2018-03-19,731.77713
2018-03-20,708.29963
2018-03-21,690.29963
2018-03-22,675.29963
2018-03-23,648.30863
2018-03-24,635.30863
2018-03-25,558.30863
2018-03-26,544.30863
2018-03-27,602.30863
2018-03-28,701.30863
2018-03-29,683.30863
2018-03-30,634.30863
2018-03-31,619.30863
2018-04-01,640.30863
2018-04-02,526.634095
2018-04-03,455.888438
2018-04-04,572.74913
2018-04-05,614.74913
2018-04-06,621.74913
2018-04-07,609.74913
2018-04-08,758.74913
2018-04-09,821.74913
2018-04-10,555.84913
2018-04-11,632.84913
2018-04-12,841.84913
2018-04-13,836.84913
2018-04-14,801.84913
2018-04-15,737.84913
2018-04-16,702.84913
2018-04-17,760.84913
2018-04-18,740.057339
2018-04-19,755.295873
2018-04-20,718.55983
2018-04-21,788.58703
2018-04-22,807.75843
2018-04-23,795.51988
2018-04-24,780.158397
2018-04-25,810.593972
2018-04-26,810.413012
2018-04-27,823.249578
2018-04-28,786.367109
2018-04-29,784.176899
2018-04-30,806.906318
2018-05-01,782.868612
2018-05-02,764.976501
2018-05-03,756.240953
2018-05-04,751.10963
2018-05-05,778.10963
2018-05-06,788.10963
2018-05-07,761.10963
2018-05-08,798.68613
2018-05-09,770.15008
2018-05-10,775.61403
2018-05-11,806.07798
2018-05-12,807.48247
2018-05-13,939.27881
2018-05-14,873.352897
2018-05-15,810.142118
2018-05-16,856.21581
2018-05-17,811.26081
2018-05-18,807.26081
2018-05-19,861.26081
2018-05-20,891.26081
2018-05-21,921.26081
2018-05-22,1011.26081
2018-05-23,941.26081
2018-05-24,837.26081
2018-05-25,802.26081
2018-05-26,764.26081
2018-05-27,783.26081
2018-05-28,734.32381
2018-05-29,725.32381
2018-05-30,831.32381
2018-05-31,844.32381
2018-06-01,854.32381
2018-06-02,954.32381
2018-06-03,974.32381
2018-06-04,968.64881
2018-06-05,814.33281
2018-06-06,822.33281
2018-06-07,823.33281
2018-06-08,824.33281
2018-06-09,896.417942
2018-06-10,892.663307
2018-06-11,848.875962
2018-06-12,833.812143
2018-06-13,851.207455
2018-06-14,844.471809
2018-06-15,671.657652
2018-06-16,843.33281
2018-06-17,853.33281
2018-06-18,826.33281
2018-06-19,746.33281
2018-06-20,658.664614
2018-06-21,618.185209
2018-06-22,800.956645
2018-06-23,609.858832
2018-06-24,739.514279
2018-06-25,760.441133
2018-06-26,703.218138
2018-06-27,692.84084
2018-06-28,711.182227
2018-06-29,628.046821
2018-06-30,-43.559021
2018-07-01,85.215556
2018-07-02,39.3474133
2018-07-03,150.320402
2018-07-04,69.5103808
2018-07-05,29.5474642
2018-07-06,29.27
2018-07-07,-49.807862
2018-07-08,16.642
2018-07-09,97.237
2018-07-10,114.023428
2018-07-11,225.768184
2018-07-12,158.514549
2018-07-13,52.028
2018-07-14,68.443905
2018-07-15,63.1161395
2018-07-16,146.03694
2018-07-17,214.204144
2018-07-18,135.311176
2018-07-19,437.852132
2018-07-20,287.452847
2018-07-21,178.692832
2018-07-22,90.0917179
2018-07-23,180.125679
2018-07-24,143.232906
2018-07-25,171.718941
2018-07-26,54.65237
2018-07-27,169.05037
2018-07-28,260.853154
2018-07-29,450.0983
2018-07-30,185.141053
2018-07-31,142.59637
2018-08-01,355.290868
2018-08-02,139.186475
2018-08-03,154.042205
2018-08-04,136.823808
2018-08-05,161.416608
2018-08-06,247.409933
2018-08-07,243.062657
2018-08-08,42.69537
2018-08-09,114.211963
2018-08-10,585.088691
2018-08-11,239.269343
2018-08-12,257.92678
2018-08-13,180.676088
2018-08-14,282.232355
2018-08-15,134.22737
2018-08-16,106.376438
2018-08-17,180.041216
2018-08-18,180.381159
2018-08-19,274.130874
2018-08-20,175.223347
2018-08-21,268.336388
2018-08-22,228.672974
2018-08-23,276.019548
2018-08-24,206.836169
2018-08-25,203.298013
2018-08-26,293.79808
2018-08-27,189.17437
2018-08-28,196.201875
2018-08-29,189.03809
2018-08-30,149.194498
2018-08-31,104.733707
2018-09-01,240.510804
2018-09-02,317.158427
2018-09-03,139.10337
2018-09-04,192.574357
2018-09-05,241.56211
2018-09-06,219.567848
2018-09-07,206.33591
2018-09-08,210.907699
2018-09-09,216.469002
2018-09-10,230.844936
2018-09-11,147.73437
2018-09-12,179.769418
2018-09-13,190.68815
2018-09-14,128.641205
2018-09-15,208.318456
2018-09-16,142.61315
2018-09-17,169.117942
2018-09-18,159.89255
2018-09-19,155.91035
2018-09-20,231.356537
2018-09-21,143.776994
2018-09-22,191.350597
2018-09-23,194.806547
2018-09-24,140.507551
2018-09-25,167.069126
2018-09-26,165.510243
2018-09-27,160.722508
2018-09-28,179.711283
2018-09-29,152.537
2018-09-30,287.142076
2018-10-01,144.663
2018-10-02,146.807
2018-10-03,190.504389
2018-10-04,185.860725
2018-10-05,149.454582
2018-10-06,227.968925
2018-10-07,172.77454
2018-10-08,209.996016
2018-10-09,242.219716
2018-10-10,170.501
2018-10-11,166.249
2018-10-12,212.985
2018-10-13,174.838118
2018-10-14,244.33434
2018-10-15,297.256223
2018-10-16,259.482596
2018-10-17,227.040014
2018-10-18,240.71506
2018-10-19,284.05718
2018-10-20,240.412894
2018-10-21,259.964671
2018-10-22,229.472849
2018-10-23,217.753033
2018-10-24,373.174787
2018-10-25,306.593773
2018-10-26,327.54533
2018-10-27,316.29397
2018-10-28,311.447437
2018-10-29,306.367496
2018-10-30,299.847882
2018-10-31,429.66782
2018-11-01,407.66782
2018-11-02,364.66782
2018-11-03,381.29882
2018-11-04,376.0718
2018-11-05,382.0718
2018-11-06,388.0718
2018-11-07,411.0718
2018-11-08,441.0718
2018-11-09,446.0718
2018-11-10,385.0718
2018-11-11,355.0718
2018-11-12,381.0718
2018-11-13,349.0718
2018-11-14,325.0718
2018-11-15,317.333
2018-11-16,318.333
2018-11-17,327.333
2018-11-18,322.72485
2018-11-19,321.72485
2018-11-20,318.72485
2018-11-21,315.72485
2018-11-22,304.72485
2018-11-23,312.72485
2018-11-24,313.72485
2018-11-25,306.72485
2018-11-26,297.1888
2018-11-27,310.1438
2018-11-28,335.1438
2018-11-29,343.1438
2018-11-30,354.1438
2018-12-01,355.1438
2018-12-02,439.1438
2018-12-03,463.1438
2018-12-04,431.1438
2018-12-05,413.1438
2018-12-06,421.83659
2018-12-07,478.83659
2018-12-08,504.83659
2018-12-09,544.54859
2018-12-10,520.54859
2018-12-11,509.54859
2018-12-12,527.54859
2018-12-13,516.88159
2018-12-14,515.88159
2018-12-15,499.88159
2018-12-16,503.1888
2018-12-17,514.1888
2018-12-18,487.1888
2018-12-19,511.1888
2018-12-20,504.1888
2018-12-21,479.1888
2018-12-22,480.88159
2018-12-23,480.88159
2018-12-24,476.88159
2018-12-25,469.88159
2018-12-26,480.88159
2018-12-27,494.88159
2018-12-28,510.79695
2018-12-29,480.2609
2018-12-30,410.927125
2018-12-31,347.804288
2019-01-01,502.6
2019-01-02,473.2609
2019-01-03,379.2609
2019-01-04,365.2609
2019-01-05,411.72485
2019-01-06,445.72485
2019-01-07,432.72485
2019-01-08,435.72485
2019-01-09,469.1888
2019-01-10,531.067055
2019-01-11,560.604234
2019-01-12,545.389393
2019-01-13,540.939727
2019-01-14,542.396
2019-01-15,538.439356
2019-01-16,533.1888
2019-01-17,529.44363
2019-01-18,555.48792
2019-01-19,546.48792
2019-01-20,530.48792
2019-01-21,538.48792
2019-01-22,546.48792
2019-01-23,535.48792
2019-01-24,558.48792
2019-01-25,565.1888
2019-01-26,557.1888
2019-01-27,566.1888
2019-01-28,575.72485
2019-01-29,579.2609
2019-01-30,576.333
2019-01-31,568.1888
2019-02-01,567.1888
2019-02-02,529.1888
2019-02-03,515.1888
2019-02-04,530.1888
2019-02-05,550.452983
2019-02-06,576.95187
2019-02-07,553.95187
2019-02-08,546.95187
2019-02-09,559.95187
2019-02-10,572.95187
2019-02-11,509.504158
2019-02-12,476.516766
2019-02-13,467.242
2019-02-14,512.044815
2019-02-15,659.270932
2019-02-16,836.2609
2019-02-17,655.2609
2019-02-18,627.2609
2019-02-19,619.79695
2019-02-20,681.79695
2019-02-21,716.79695
2019-02-22,742.79695
2019-02-23,766.79695
2019-02-24,720.79695
2019-02-25,730.79695
2019-02-26,644.79695
2019-02-27,629.79695
2019-02-28,731.79695
2019-03-01,779.79695
2019-03-02,785.79695
2019-03-03,807.79695
2019-03-04,813.79695
2019-03-05,882.79695
2019-03-06,1001.79695
2019-03-07,1031.79695
2019-03-08,1081.79695
2019-03-09,1111.79695
2019-03-10,1131.79695
2019-03-11,1141.79695
2019-03-12,1201.79695
2019-03-13,1511.79695
2019-03-14,1333.333
2019-03-15,1163.333
2019-03-16,1123.333
2019-03-17,928.555301
2019-03-18,889.236906
2019-03-19,1014.94158
2019-03-20,817.27345
2019-03-21,995.143699
2019-03-22,870.445
2019-03-23,1248.183
2019-03-24,1237.02644
2019-03-25,1206.09439
2019-03-26,1247.45838
2019-03-27,1473.53263
2019-03-28,1655.53543
2019-03-29,1994.89411
2019-03-30,2013.333
2019-03-31,1973.333
2019-04-01,1943.333
2019-04-02,1953.333
2019-04-03,2033.333
2019-04-04,1782.62486
2019-04-05,1722.66379
2019-04-06,1736.3588
2019-04-07,1759.7163
2019-04-08,1792.1239
2019-04-09,2100.33624
2019-04-10,2368.378
2019-04-11,2338.378
2019-04-12,2208.378
2019-04-13,2098.378
2019-04-14,1924.13857
2019-04-15,1525.3693
2019-04-16,1243.8446
2019-04-17,1640.27334
2019-04-18,1875.405
2019-04-19,1975.405
2019-04-20,2555.405
2019-04-21,2765.405
2019-04-22,2975.405
2019-04-23,3322.432
2019-04-24,3312.432
2019-04-25,3342.432
2019-04-26,3542.432
2019-04-27,4012.432
2019-04-28,4322.432
2019-04-29,4762.432
2019-04-30,5170.0
2019-05-01,5270.0
2019-05-02,4840.0
2019-05-03,4940.0
2019-05-04,4810.0
2019-05-05,4490.0
2019-05-06,4390.0
2019-05-07,4470.0
2019-05-08,4490.0
2019-05-09,4750.0
2019-05-10,5090.0
2019-05-11,5190.0
2019-05-12,5400.0
2019-05-13,5090.0
2019-05-14,4780.0
2019-05-15,4670.0
2019-05-16,4750.0
2019-05-17,5070.0
2019-05-18,5310.0
2019-05-19,5490.0
2019-05-20,5670.0
2019-05-21,5520.0
2019-05-22,4980.0
2019-05-23,4490.0
2019-05-24,4160.0
2019-05-25,3970.0
2019-05-26,3840.0
2019-05-27,3850.0
2019-05-28,3840.0
2019-05-29,3890.0
2019-05-30,3910.0
2019-05-31,3900.0
2019-06-01,3830.0
2019-06-02,3890.0
2019-06-03,4040.0
2019-06-04,4370.0
2019-06-05,4780.0
2019-06-06,5150.0
2019-06-07,5340.0
2019-06-08,5600.0
2019-06-09,5680.0
2019-06-10,5500.0
2019-06-11,5540.0
2019-06-12,5800.0
2019-06-13,6140.0
2019-06-14,6220.0
2019-06-15,6120.0
2019-06-16,6280.0
2019-06-17,6390.0
2019-06-18,6540.0
2019-06-19,6170.0
2019-06-20,5690.0
2019-06-21,5530.0
2019-06-22,5510.0
2019-06-23,5630.0
2019-06-24,5550.0
2019-06-25,5440.0
2019-06-26,5230.0
2019-06-27,4900.0
2019-06-28,4740.0
2019-06-29,4630.0
2019-06-30,4630.0
2019-07-01,4790.0
2019-07-02,4885.40662
2019-07-03,4755.40662
2019-07-04,4335.40662
2019-07-05,4363.08768
2019-07-06,4373.08768
2019-07-07,4433.08768
2019-07-08,4223.08768
2019-07-09,3913.08768
2019-07-10,3250.11468
2019-07-11,3000.11468
2019-07-12,2900.11468
2019-07-13,2750.11468
2019-07-14,2560.11468
2019-07-15,2450.11468
2019-07-16,2350.11468
2019-07-17,2250.11468
2019-07-18,2080.11468
2019-07-19,1970.11468
2019-07-20,1900.11468
2019-07-21,1830.11468
2019-07-22,1745.15968
2019-07-23,1775.15968
2019-07-24,1565.15968
2019-07-25,1598.26151
2019-07-26,1778.26151
2019-07-27,1638.26151
2019-07-28,1637.567
2019-07-29,1707.567
2019-07-30,1668.26151
2019-07-31,1468.26151
2019-08-01,1288.26151
2019-08-02,1168.26151
2019-08-03,1098.26151
2019-08-04,1108.26151
2019-08-05,1138.26151
2019-08-06,1208.26151
2019-08-07,1281.36334
2019-08-08,1261.36334
2019-08-09,1331.36334
2019-08-10,1581.36334
2019-08-11,1651.36334
2019-08-12,1711.36334
2019-08-13,1691.36334
2019-08-14,1681.36334
2019-08-15,1671.36334
2019-08-16,1571.36334
2019-08-17,1371.36334
2019-08-18,1241.36334
2019-08-19,1121.36334
2019-08-20,991.36334
2019-08-21,941.36334
2019-08-22,871.36334
2019-08-23,800.36334
2019-08-24,742.26334
2019-08-25,814.85885
2019-08-26,873.85885
2019-08-27,830.84035
2019-08-28,820.84035
2019-08-29,767.84035
2019-08-30,780.84035
2019-08-31,790.84035
2019-09-01,747.84035
2019-09-02,790.84035
2019-09-03,733.84035
2019-09-04,722.84035
2019-09-05,745.37185
2019-09-06,733.37185
2019-09-07,802.14685
2019-09-08,812.14685
2019-09-09,832.14685
2019-09-10,796.14685
2019-09-11,800.14685
2019-09-12,749.92185
2019-09-13,742.92185
2019-09-14,667.92185
2019-09-15,675.92185
2019-09-16,726.92185
2019-09-17,631.69685
2019-09-18,554.69685
2019-09-19,559.01397
2019-09-20,539.01397
2019-09-21,523.23897
2019-09-22,497.23897
2019-09-23,469.23897
2019-09-24,589.23897
2019-09-25,577.23897
2019-09-26,610.21197
2019-09-27,587.21197
2019-09-28,581.67592
2019-09-29,557.67592
2019-09-30,543.67592
2019-10-01,532.67592
2019-10-02,561.11742
2019-10-03,604.11742
2019-10-04,762.11742
2019-10-05,581.684748
2019-10-06,584.56742
2019-10-07,579.21742
2019-10-08,846.18142
2019-10-09,881.18142
2019-10-10,886.18142
2019-10-11,948.18142
2019-10-12,1028.18142
2019-10-13,1015.07959
2019-10-14,1005.07959
2019-10-15,1009.53909
2019-10-16,912.53909
2019-10-17,910.64092
2019-10-18,952.64092
2019-10-19,982.64092
2019-10-20,994.18688
2019-10-21,1014.18688
2019-10-22,867.211044
2019-10-23,903.18688
2019-10-24,845.971358
2019-10-25,899.9365
2019-10-26,905.73284
2019-10-27,926.649271
2019-10-28,986.259871
2019-10-29,938.38508
2019-10-30,950.456121
2019-10-31,924.715382
2019-11-01,931.69684
2019-11-02,938.25271
2019-11-03,991.25271
2019-11-04,991.25271
2019-11-05,991.25271
2019-11-06,1001.25271
2019-11-07,1021.25271
2019-11-08,1021.25271
2019-11-09,1045.21671
2019-11-10,1245.21671
2019-11-11,1245.21671
2019-11-12,1245.21671
2019-11-13,1256.20771
2019-11-14,1256.20771
2019-11-15,1276.20771
2019-11-16,1486.20771
2019-11-17,1496.20771
2019-11-18,1496.20771
2019-11-19,1496.20771
2019-11-20,1558.18971
2019-11-21,1818.18971
2019-11-22,1828.18971
2019-11-23,1828.18971
2019-11-24,1858.18971
2019-11-25,1858.18971
2019-11-26,1878.18971
2019-11-27,1808.18971
2019-11-28,1588.18971
2019-11-29,1618.18971
2019-11-30,1478.18971
2019-12-01,1328.18971
2019-12-02,1118.18971
2019-12-03,1068.18971
2019-12-04,969.73567
2019-12-05,1019.73567
2019-12-06,1317.41673
2019-12-07,1217.41673
2019-12-08,1167.41673
2019-12-09,1147.41673
2019-12-10,912.41673
2019-12-11,750.41673
2019-12-12,697.41673
2019-12-13,651.29154
2019-12-14,822.29154
2019-12-15,893.29154
2019-12-16,802.536402
2019-12-17,626.754
2019-12-18,512.682
2019-12-19,392.476
2019-12-20,425.459
2019-12-21,500.459
2019-12-22,556.63384
2019-12-23,530.63384
2019-12-24,538.63384
2019-12-25,569.63384
2019-12-26,597.63384
2019-12-27,609.63384
2019-12-28,615.63384
2019-12-29,622.63384
2019-12-30,597.63384
2019-12-31,572.63384
2020-01-01,593.63384
2020-01-02,645.63384
2020-01-03,604.63384
2020-01-04,626.63384
2020-01-05,624.63384
2020-01-06,641.63384
2020-01-07,642.63384
2020-01-08,630.63384
2020-01-09,618.63384
2020-01-10,633.63384
2020-01-11,608.63384
2020-01-12,599.1798
2020-01-13,604.1798
2020-01-14,582.203884
2020-01-15,569.878033
2020-01-16,597.693521
2020-01-17,636.1798
2020-01-18,599.379692
2020-01-19,584.593244
2020-01-20,606.212394
2020-01-21,631.027882
2020-01-22,635.212744
2020-01-23,604.675
2020-01-24,601.22683
2020-01-25,634.73567
2020-01-26,620.400763
2020-01-27,610.675
2020-01-28,611.7831
2020-01-29,603.675
2020-01-30,602.675
2020-01-31,618.208328
2020-02-01,632.73567
2020-02-02,611.254583
2020-02-03,609.684
2020-02-04,629.291782
2020-02-05,604.763267
2020-02-06,564.675
2020-02-07,576.675
2020-02-08,653.73567
2020-02-09,686.73567
2020-02-10,684.73567
2020-02-11,719.73567
2020-02-12,685.73567
2020-02-13,671.73567
2020-02-14,697.73567
2020-02-15,727.73567
2020-02-16,761.73567
2020-02-17,776.73567
2020-02-18,797.73567
2020-02-19,784.73567
2020-02-20,797.73567
2020-02-21,796.73567
2020-02-22,817.45667
2020-02-23,864.89817
2020-02-24,870.89817